Regional Weather Roundup
Issued by NWS Binghamton, NY

Home | Current Version | Previous Version | Text Only | Print | Product List | Glossary On
Versions: 1 2 3 4 5 6 7 8 9 10 11 12 13 14 15 16 17 18 19 20 21 22 23 24 25 26 27 28 29 30 31 32 33 34 35 36 37 38 39 40 41 42 43 44 45 46 47 48 49 50
000
ASUS41 KBGM 020010
RWRBGM
RWRBGM
BINGHAMTON REGIONAL WEATHER ROUNDUP
NATIONAL WEATHER SERVICE BINGHAMTON NY
800 PM EDT WED JUL 01 2015

Note: "fair" indicates few or no clouds below 12,000 feet with no
significant weather and/or obstructions to visibility.

* = Station(s) that does not report precipitation, such as rain,
snow, etc, also no thunder or fog.

!NYZ009-015>018-022>025-036-037-044>046-055>057-062-020100
...CENTRAL NEW YORK...

CITY           SKY/WX    TMP DP  RH WIND       PRES   REMARKS
BINGHAMTON     CLEAR     65  57  75 NW7       29.86R
CORTLAND       LGT RAIN  66  61  82 W6        29.86R
DANSVILLE      CLOUDY    69  59  70 W3        29.86R
ELMIRA         PTCLDY    70  60  70 W6        29.84R
ITHACA         MOCLDY    67  58  72 NW8       29.86R
MONTICELLO     PTCLDY    68  61  77 W7        29.86R
NORWICH        PTCLDY    66  57  72 CALM      29.84R
PENN YAN       MOCLDY    68  58  70 NW8       29.86R
ROME           CLEAR     67  58  72 W12       29.80R
SIDNEY         CLEAR     68  64  88 CALM      29.84R
SYRACUSE       MOCLDY    69  57  65 W13G24    29.80R
$$

!PAZ038>040-043-044-047-048-072-020100
...NORTHEAST PENNSYLVANIA...

CITY           SKY/WX    TMP DP  RH WIND       PRES   REMARKS
HAZLETON       CLOUDY    70  59  68 W3        29.91R
SCRANTON       MOCLDY    75  59  57 W6        29.84R
TOWANDA*       CLEAR     72  57  60 MISG      29.85R
$$
&&
KEY
WCI = WIND CHILL INDEX
VSB = VISIBILITY
HX  = HEAT INDEX
$$


USA.gov is the U.S. government's official web portal to all federal, state and local government web resources and services.